EHI
0 0 0 0 0 0 0 0 0 0 0 0 0 0 0 0 0 1 2 3 5 5 6 7 14 27 46 70 88 95 98 99 98 96 91 80 62 45 32 23 15 9 8 9
0 0 0 0 0 0 0 0 0 0 0 0 0 0 0 0 1 5 11 16 19 21 21 21 25 34 48 65 81 90 95 98 97 93 86 72 52 34 22 15 9 4 3 4
0 0 0 0 0 0 0 0 0 0 0 0 0 0 0 0 5 16 29 39 46 50 50 48 48 51 57 64 74 84 92 94 92 85 73 56 37 22 12 6 2 0 0 0
0 0 0 0 0 0 0 0 0 0 0 0 0 0 0 1 8 26 45 56 65 71 72 70 67 66 70 70 73 81 86 86 81 71 57 43 29 17 7 2 0 0 0 0
0 0 0 0 0 0 0 0 0 0 0 0 0 0 0 2 13 32 48 57 62 66 69 69 66 68 70 72 73 74 73 69 62 52 42 33 22 11 4 1 0 0 0 0
0 0 0 0 0 0 0 0 0 0 0 0 0 0 2 7 17 30 39 43 43 43 44 45 47 49 55 61 63 59 52 44 38 32 25 19 11 5 1 0 0 0 0 0
0 0 0 0 0 0 0 0 0 0 0 0 0 1 5 13 17 20 22 23 21 18 17 19 22 24 29 36 39 36 28 21 18 15 11 7 4 2 0 0 0 0 0 0
0 0 0 0 0 0 0 0 0 0 0 0 0 2 9 13 12 9 8 9 8 5 4 4 5 7 9 12 14 13 10 8 6 5 3 2 1 1 0 0 0 0 0 0
0 0 0 0 0 0 0 0 0 0 0 0 0 2 7 9 8 6 5 4 3 1 1 0 0 1 1 1 1 2 3 3 2 1 1 1 0 0 0 0 0 0 0 0
0 0 0 0 0 0 0 0 0 0 0 0 0 1 5 11 15 12 6 2 1 0 0 0 0 0 0 0 0 1 1 1 0 0 0 0 0 0 0 0 0 0 0 0
0 0 0 0 0 0 0 0 0 0 0 0 0 1 9 23 28 19 6 1 0 0 0 0 0 0 0 0 0 0 0 0 0 0 0 0 0 0 0 0 0 0 0 0
0 0 0 0 0 0 0 0 0 0 0 0 0 4 17 32 33 18 5 0 0 0 0 0 0 0 0 0 0 0 0 0 0 0 0 0 0 0 0 0 0 0 0 0
0 0 0 0 0 0 0 0 0 0 0 0 0 5 18 30 25 11 2 0 0 0 0 0 0 0 0 0 0 0 0 0 0 0 0 0 0 0 0 0 0 0 0 0
0 0 0 0 0 0 0 0 0 0 0 0 0 3 12 19 15 6 1 0 0 0 0 0 0 0 0 0 0 0 0 0 0 0 0 0 0 0 0 0 0 0 0 0
0 0 0 0 0 0 0 0 0 0 0 1 2 5 10 14 11 5 1 0 0 0 0 0 0 0 0 0 0 0 0 0 0 0 0 0 0 0 0 0 0 0 0 0
0 0 0 0 0 0 0 0 0 0 0 1 4 10 15 16 11 4 1 0 0 0 0 0 0 0 0 0 0 0 0 0 0 0 0 0 0 0 0 0 0 0 0 0
0 0 0 0 0 0 0 0 0 0 1 2 6 10 13 12 7 2 0 0 0 0 0 0 0 0 0 0 0 0 0 0 0 0 0 0 0 0 0 0 0 0 0 0
0 0 0 0 0 0 0 0 0 0 1 3 5 7 7 4 2 0 0 0 0 0 0 0 0 0 0 0 0 0 0 0 0 0 0 0 0 0 0 0 0 0 0 0
0 0 0 0 0 0 0 0 0 0 1 2 2 3 2 1 0 0 0 0 0 0 0 0 0 0 0 0 0 0 0 0 0 0 0 0 0 0 0 0 0 0 0 0
0 0 0 0 0 0 0 0 0 0 0 0 0 0 0 0 0 0 0 0 0 0 0 0 0 0 0 0 0 0 0 0 0 0 0 0 0 0 0 0 0 0 0 0
0 0 0 0 0 0 0 0 0 0 0 0 0 0 0 0 0 0 0 0 0 0 0 0 0 0 0 0 0 0 0 0 0 0 0 0 0 0 0 0 0 0 0 0
0 0 0 0 0 0 0 0 0 0 0 0 0 0 0 0 0 0 0 0 0 0 0 0 0 0 0 0 0 0 0 0 0 0 0 0 0 0 0 0 0 0 0 0
0 0 0 0 0 0 0 0 0 0 0 0 0 0 0 0 0 0 0 0 0 0 0 0 0 0 0 0 0 0 0 0 0 0 0 0 0 0 0 0 0 0 0 0
0 0 0 0 0 0 0 0 0 0 0 0 0 0 0 0 0 0 0 0 0 0 0 0 0 0 0 0 0 0 0 0 0 0 0 0 0 0 0 0 0 0 0 0
0 0 0 0 0 0 0 0 0 0 0 0 0 0 0 0 0 0 0 0 0 0 0 0 0 0 0 0 0 0 0 0 0 0 0 0 0 0 0 0 0 0 0 0
0 0 0 0 0 0 0 0 0 0 0 0 0 0 0 0 0 0 0 0 0 0 0 0 0 0 0 0 0 0 0 0 0 0 0 0 0 0 0 0 0 0 0 0
Wind_Speed
12 12 13 13 14 8 4 7 8 7 3 7 10 11 10 7 6 5 5 5 6 7 7 6 8 11 12 13 14 14 14 14 12 10 10 8 7 6 6 6 6 4 3 2
12 15 13 9 10 11 10 10 10 8 5 7 10 12 10 6 2 3 5 6 7 8 6 5 4 7 11 13 14 15 15 15 14 11 9 8 9 7 6 6 6 6 4 4
16 7 11 11 12 13 14 14 12 8 6 9 10 13 11 5 4 5 6 7 9 10 9 7 4 1 5 9 12 12 13 14 13 13 10 9 7 6 4 5 3 3 4 4
14 7 10 14 14 14 13 12 11 10 10 9 7 11 10 8 7 6 8 10 11 12 11 11 9 7 4 2 6 9 11 12 13 14 13 14 9 7 6 5 4 4 4 4
11 12 12 14 14 14 10 7 10 10 10 11 10 11 8 8 6 7 9 10 11 12 12 12 12 10 9 7 6 8 10 11 12 11 11 10 8 6 6 6 6 6 5 6
9 8 11 12 12 13 9 7 7 9 10 13 13 12 9 5 3 6 8 10 11 11 12 12 12 12 12 11 10 10 10 10 9 9 8 8 9 9 8 7 7 6 5 6
11 12 10 9 11 12 12 11 9 11 11 11 9 10 3 9 7 8 9 10 11 11 11 12 13 13 13 13 12 12 13 12 11 10 9 8 8 8 8 7 7 7 6 6
10 11 12 12 14 11 15 16 11 8 9 8 10 9 9 9 11 11 11 11 11 12 12 13 13 13 13 14 13 13 14 13 12 11 11 10 9 7 7 8 8 8 7 8
5 5 8 10 12 13 14 15 14 11 10 8 7 7 9 10 12 12 11 11 12 11 12 12 13 13 13 14 14 13 14 13 13 13 12 12 11 11 11 10 10 9 8 8
4 4 4 5 9 12 13 11 9 11 12 12 10 12 11 15 13 12 11 11 11 11 11 12 12 12 12 12 13 14 14 14 13 13 12 11 12 12 11 11 11 10 10 8
5 6 4 7 8 10 11 11 11 11 11 12 12 5 6 15 14 14 12 11 11 11 10 10 10 11 11 12 13 13 13 14 13 14 13 13 12 12 12 11 11 10 9 8
2 6 5 4 1 3 8 9 11 11 11 11 12 3 6 11 14 15 14 12 12 11 10 10 10 10 11 12 13 13 13 13 13 13 13 13 12 12 12 11 10 9 8 7
4 4 6 7 8 6 5 4 7 9 9 10 12 5 9 12 14 15 15 13 11 11 10 9 9 10 11 12 12 12 12 12 12 12 13 12 12 12 11 11 9 8 7 6
5 4 6 6 2 1 4 4 5 8 9 8 6 7 12 13 14 14 14 14 12 11 10 10 9 10 10 10 11 11 11 11 11 11 12 12 11 11 10 9 8 7 7 6
6 3 2 2 2 2 2 3 4 5 6 7 2 5 10 11 13 14 14 14 13 12 11 10 9 9 9 10 10 10 10 10 10 11 12 11 10 10 9 8 7 6 5 4
5 3 3 3 1 2 2 2 2 2 3 2 1 4 8 9 11 12 12 13 13 12 11 10 10 9 9 9 9 9 10 9 10 11 10 9 8 8 7 6 5 5 4 4
4 4 5 5 2 7 6 3 4 2 3 3 2 5 11 11 10 8 10 11 12 11 10 10 9 8 8 8 9 9 9 9 10 9 8 7 6 6 5 5 5 4 4 4
6 5 4 5 5 8 6 6 5 3 4 6 6 9 11 13 13 12 9 11 11 10 10 9 8 9 9 9 9 9 9 9 8 8 6 5 5 5 5 5 5 4 4 4
4 5 5 5 7 4 6 4 6 5 3 6 8 12 13 14 14 11 10 10 10 10 9 9 9 10 9 9 9 9 9 8 8 7 6 5 5 5 5 5 5 4 4 4
0 3 5 5 6 3 6 8 6 5 2 6 7 10 10 7 4 6 8 10 11 10 9 9 9 10 9 8 7 8 8 7 7 6 6 6 6 5 5 5 4 4 3 3
3 3 4 5 5 3 9 8 5 3 5 5 7 8 7 7 9 11 11 11 11 11 10 10 9 9 8 7 7 7 7 7 6 6 6 6 5 5 4 3 3 3 3 3
5 4 3 3 3 3 10 6 7 6 5 7 9 11 13 14 14 13 12 11 11 11 10 10 9 8 7 6 6 7 7 6 5 5 5 5 4 3 3 2 2 2 3 2
3 5 5 4 4 5 5 6 5 4 6 7 9 12 14 15 13 13 12 11 11 11 10 9 9 8 6 5 5 6 6 4 4 4 4 4 3 2 2 1 1 2 2 3
1 1 4 1 4 5 5 6 6 7 7 8 9 12 14 15 14 13 12 11 11 10 9 8 8 8 7 6 5 5 4 3 3 3 3 2 1 1 1 2 2 3 4 4
3 3 4 3 3 5 5 6 6 7 8 10 10 11 14 16 15 14 12 11 10 9 8 7 7 7 7 6 5 5 4 2 2 2 1 1 1 2 1 1 3 4 5 5
3 4 4 2 4 2 5 5 5 7 8 10 12 13 13 14 15 13 12 11 10 9 8 7 7 7 6 6 6 5 4 2 1 1 0 1 1 1 2 1 2 3 1 4
Wind_Direction
184 203 209 205 215 248 237 229 219 225 239 259 250 255 261 272 271 280 304 312 298 285 286 270 237 219 206 197 192 189 187 179 173 166 161 154 146 134 123 119 122 127 142 167
187 218 219 214 213 228 230 234 235 233 221 264 264 262 259 262 278 10 355 352 346 336 335 325 270 226 211 202 195 191 187 178 174 167 158 152 140 137 139 148 148 154 157 164
210 209 202 200 203 215 224 234 241 249 248 238 257 248 225 187 121 68 39 25 19 11 5 9 4 294 211 201 195 190 184 172 165 152 140 135 131 137 150 152 149 139 144 157
222 192 186 201 207 212 222 224 241 249 254 236 221 251 194 171 145 74 46 38 32 29 29 33 39 44 57 135 168 167 161 155 152 151 154 154 158 158 159 146 134 125 125 136
208 202 199 209 211 213 233 222 231 242 250 260 226 246 211 168 164 76 52 44 41 41 42 45 47 52 57 70 102 129 136 140 145 150 152 153 147 130 125 125 125 111 99 97
214 197 216 222 218 214 223 217 226 239 241 239 232 234 217 132 98 87 70 57 49 45 46 47 50 54 57 63 76 92 103 105 109 113 121 127 127 128 132 132 123 108 96 88
205 202 209 220 209 199 214 219 216 212 215 230 202 224 131 93 96 94 84 66 55 49 46 43 44 47 51 57 64 75 82 80 80 85 87 96 107 117 121 122 113 109 102 95
199 200 198 208 218 203 207 222 236 236 226 206 183 214 113 112 106 99 90 78 64 53 48 45 44 46 49 54 59 67 73 74 74 77 77 78 83 87 89 94 102 103 100 96
210 191 176 208 220 229 212 222 243 265 269 259 195 132 124 137 124 111 99 83 69 59 52 48 46 48 52 55 58 66 72 74 73 76 78 78 80 85 91 94 96 97 100 105
277 247 206 198 210 221 243 230 227 241 245 242 223 203 179 166 148 128 109 93 79 67 59 54 51 54 57 63 66 68 73 75 76 78 80 83 85 91 96 96 95 97 99 101
272 253 205 191 210 204 208 220 230 241 251 253 244 206 109 155 149 133 115 101 90 78 68 63 63 64 69 72 75 77 78 79 79 80 83 86 87 89 91 93 96 98 100 106
308 272 241 202 143 282 225 228 225 240 239 248 268 102 100 134 135 128 119 108 98 90 82 76 75 76 76 75 74 75 78 81 84 86 87 87 89 90 90 90 92 94 94 91
328 261 231 195 186 192 209 226 238 247 259 253 255 144 123 127 126 127 123 118 112 106 99 92 85 80 77 77 78 79 80 82 86 89 89 88 88 89 88 88 87 87 88 85
292 277 284 288 334 205 208 217 236 247 249 249 258 136 151 149 139 133 130 126 120 115 110 102 93 87 83 82 82 82 82 84 88 89 89 87 85 84 83 83 81 77 76 77
324 281 308 334 350 295 253 270 265 265 288 284 266 152 156 158 149 140 135 129 123 118 112 106 101 96 94 91 89 86 85 85 88 90 87 84 82 81 80 76 74 73 71 73
354 317 268 233 227 249 246 303 292 298 304 288 171 102 108 116 121 127 131 129 124 120 117 113 109 106 102 100 97 94 91 88 89 89 86 84 83 81 81 82 82 76 67 58
333 312 278 252 257 257 228 9 342 343 6 328 315 99 120 110 100 107 121 120 118 118 115 112 111 107 105 103 102 102 100 98 95 94 93 92 93 90 86 84 76 67 58 49
317 306 277 271 257 251 71 49 16 20 40 24 66 94 100 97 84 69 81 104 109 111 109 108 109 107 105 104 102 102 101 102 102 103 105 108 103 93 84 72 63 52 43 35
334 300 284 276 263 246 112 45 352 332 52 57 98 105 110 115 95 67 64 85 98 103 105 108 111 111 108 107 109 111 111 112 113 116 114 101 92 85 76 68 58 44 32 25
19 280 273 273 276 280 55 14 339 292 102 81 110 123 135 154 120 97 91 95 98 101 104 108 110 109 108 111 119 118 117 119 118 111 103 95 83 74 70 63 47 44 26 15
291 280 281 280 271 58 24 339 313 310 50 85 107 111 98 63 80 110 109 103 104 106 109 111 110 108 110 120 123 120 120 114 108 104 98 88 83 80 71 63 45 24 10 13
319 314 316 305 289 50 8 3 31 40 61 87 94 96 97 101 106 110 111 111 111 110 110 111 110 110 116 126 128 120 111 109 109 106 100 93 81 67 74 61 36 6 341 333
321 352 341 2 33 52 34 48 51 52 80 87 102 114 118 119 118 117 116 115 113 112 113 115 117 117 115 113 109 109 113 119 119 113 99 94 90 72 44 357 352 341 347 348
157 311 289 292 103 91 77 71 59 58 73 87 108 121 125 124 125 124 122 120 119 120 121 123 117 110 104 101 94 94 100 112 125 117 109 104 98 83 64 339 355 2 1 360
310 280 272 257 127 127 97 69 71 79 89 99 107 116 123 126 127 127 124 123 120 116 114 109 101 98 97 95 91 90 94 109 119 119 110 96 81 52 5 27 26 4 33 24
249 274 285 352 50 30 84 80 94 107 108 112 115 115 120 125 127 126 122 120 119 116 111 104 99 95 95 94 89 83 79 72 68 121 54 328 353 14 345 350 120 130 48 134